📊 Raw Sensor Data

Showing records 45301 to 45325 of 85,051 total

ID Distance (ft) Battery V Battery A Int Temp (°F) Int Humid (%) Ext Temp (°F) Solar V RSSI SNR Time Stamp
39763 16.0 4.01 0 81 41 79 5.10 -70 8 05/05/2025 12:30 PM
39762 -- 4.01 0 80 41 77 5.10 -71 8 05/05/2025 12:15 PM
39761 16.0 4.01 0 79 41 78 5.10 -68 8 05/05/2025 12:00 PM
39760 -- 4.01 0 79 41 76 5.10 -72 8 05/05/2025 11:45 AM
39759 16.0 4.07 0 78 41 76 5.10 -69 8 05/05/2025 11:30 AM
39758 16.1 4.01 0 77 41 77 5.10 -70 8 05/05/2025 11:15 AM
39757 16.0 4.00 0 76 41 75 5.10 -70 8 05/05/2025 11:00 AM
39756 16.0 4.14 0 76 41 74 5.10 -69 8 05/05/2025 10:45 AM
39755 16.0 4.14 0 75 41 74 5.10 -69 8 05/05/2025 10:30 AM
39754 16.0 4.00 0 74 41 73 5.10 -70 8 05/05/2025 10:15 AM
39753 15.9 4.00 0 73 40 73 5.10 -72 7 05/05/2025 10:00 AM
39752 16.0 4.01 0 72 40 72 5.10 -71 8 05/05/2025 09:45 AM
39751 16.0 4.13 0 71 41 70 5.10 -70 8 05/05/2025 09:30 AM
39750 16.0 4.00 0 69 40 69 5.10 -69 7 05/05/2025 09:00 AM
39749 15.9 4.00 0 67 41 68 5.10 -69 7 05/05/2025 08:45 AM
39748 15.9 4.00 0 66 41 67 5.10 -70 8 05/05/2025 08:30 AM
39747 15.9 4.00 0 65 41 65 5.10 -69 8 05/05/2025 08:15 AM
39746 15.9 4.00 0 64 41 64 5.10 -70 8 05/05/2025 08:00 AM
39745 16.0 4.00 0 62 41 63 5.10 -71 8 05/05/2025 07:45 AM
39744 15.9 4.09 43 61 41 62 4.50 -71 7 05/05/2025 07:30 AM
39743 15.9 4.03 9 60 41 61 4.50 -70 8 05/05/2025 07:15 AM
39742 15.8 4.02 10 59 42 60 4.50 -71 8 05/05/2025 07:00 AM
39741 15.8 4.00 0 58 42 59 4.50 -71 8 05/05/2025 06:45 AM
39740 15.8 3.99 0 58 42 59 4.50 -70 8 05/05/2025 06:30 AM
39739 15.8 3.92 -9 57 42 59 4.50 -70 8 05/05/2025 06:15 AM